SWR65 KMIA-LSZH

Flight info

Callsign SWR65
Flight time N/A
Altitude 35000
Route FOLZZ3 SUMRS/M083F350 M204 SOORY DCT 43N050W 46N040W 47N030W/M083F370 48N020W 48N015W DCT ETIKI DCT REGHI/N0482F380 DCT OZNOH DCT BULOX DCT TABOV/N0477F390 DCT RESMI DCT TEPRI DCT POGZI DCT GELTA DCT MANAG DCT PEVIT DCT BLM
Aircraft B77W/H-SDE1E2E3FGHIJ2J3J4J5M1RWXY/LB1D1

Departure

Time N/A
Airport Miami International Airport (KMIA)

Arrival

Time 2026-05-04 08:28
Airport Zürich Airport (LSZH)
Time Latitude Longitude Altitude Speed Heading
2026-05-04 08:10 47.77144 6.84012 22702 ft 408 kts 110°
2026-05-04 08:11 47.76325 6.88003 22427 ft 399 kts 110°
2026-05-04 08:11 47.74727 6.95727 21774 ft 385 kts 111°
2026-05-04 08:11 47.73951 6.99455 21367 ft 381 kts 111°
2026-05-04 08:12 47.73172 7.03198 20957 ft 377 kts 111°
2026-05-04 08:12 47.72398 7.06901 20553 ft 374 kts 111°
2026-05-04 08:12 47.71632 7.10569 20155 ft 370 kts 111°
2026-05-04 08:12 47.70870 7.14206 19757 ft 367 kts 111°
2026-05-04 08:13 47.70112 7.17814 19347 ft 365 kts 111°
2026-05-04 08:13 47.69359 7.21394 18961 ft 362 kts 111°
2026-05-04 08:13 47.68610 7.24948 18561 ft 359 kts 111°
2026-05-04 08:13 47.67866 7.28476 18137 ft 357 kts 111°
2026-05-04 08:14 47.67126 7.31980 17693 ft 355 kts 111°
2026-05-04 08:14 47.66389 7.35462 17278 ft 352 kts 111°
2026-05-04 08:14 47.65658 7.38913 16878 ft 349 kts 111°
2026-05-04 08:16 47.60449 7.62153 14172 ft 333 kts 113°
2026-05-04 08:16 47.59685 7.65385 13790 ft 332 kts 113°
2026-05-04 08:16 47.58925 7.68603 13366 ft 330 kts 113°
2026-05-04 08:17 47.58168 7.71806 12954 ft 329 kts 113°
2026-05-04 08:17 47.57413 7.74996 12550 ft 328 kts 112°
2026-05-04 08:17 47.56663 7.78182 12132 ft 327 kts 112°
2026-05-04 08:17 47.55917 7.81348 11736 ft 325 kts 112°
2026-05-04 08:19 47.51644 8.02676 9616 ft 296 kts 77°
2026-05-04 08:19 47.52561 8.05403 9281 ft 298 kts 54°
2026-05-04 08:20 47.54076 8.07457 8990 ft 294 kts 34°
2026-05-04 08:20 47.55790 8.08973 8739 ft 280 kts 32°
2026-05-04 08:20 47.57423 8.10433 8411 ft 269 kts 33°
2026-05-04 08:20 47.59004 8.11869 8053 ft 267 kts 34°
2026-05-04 08:21 47.60583 8.13314 7749 ft 267 kts 34°
2026-05-04 08:21 47.62135 8.14794 7422 ft 262 kts 41°
2026-05-04 08:21 47.63426 8.16653 7151 ft 257 kts 50°
2026-05-04 08:21 47.64618 8.18623 6870 ft 256 kts 50°
2026-05-04 08:22 47.65807 8.20571 6579 ft 254 kts 49°
2026-05-04 08:22 47.66898 8.22578 6260 ft 246 kts 64°
2026-05-04 08:24 47.61642 8.35260 4993 ft 215 kts 136°
2026-05-04 08:24 47.60543 8.36769 4725 ft 213 kts 137°
2026-05-04 08:24 47.59477 8.38229 4388 ft 209 kts 137°
2026-05-04 08:24 47.58444 8.39635 4128 ft 194 kts 136°
2026-05-04 08:25 47.57486 8.40949 3869 ft 185 kts 136°
2026-05-04 08:25 47.56529 8.42258 3638 ft 187 kts 136°
2026-05-04 08:25 47.55581 8.43556 3417 ft 185 kts 136°
2026-05-04 08:25 47.54741 8.44701 3184 ft 181 kts 136°
2026-05-04 08:26 47.53842 8.45931 2934 ft 168 kts 137°
2026-05-04 08:27 47.48372 8.53393 1500 ft 151 kts 137°
2026-05-04 08:28 47.47610 8.54426 1409 ft 140 kts 137°
2026-05-04 08:28 47.47013 8.55242 1402 ft 89 kts 137°
2026-05-04 08:28 47.46644 8.55747 1407 ft 59 kts 137°
2026-05-04 08:28 47.46395 8.55957 1409 ft 31 kts 168°
2026-05-04 08:29 47.46259 8.55997 1413 ft 15 kts 172°
2026-05-04 08:29 47.46159 8.56002 1411 ft 15 kts 185°
2026-05-04 08:29 47.46059 8.55985 1412 ft 15 kts 186°
2026-05-04 08:31 47.46047 8.55239 1402 ft 7 kts
2026-05-04 08:33 47.46068 8.55242 1400 ft 0 kts